Regional Weather Roundup
Issued by NWS Little Rock, AR

Home | Current Version | Previous Version | Graphics & Text | Print | Product List | Glossary On
Versions: 1 2 3 4 5 6 7 8 9 10 11 12 13 14 15 16 17 18 19 20 21 22 23 24 25 26 27 28 29 30 31 32 33 34 35 36 37 38 39 40 41 42 43 44 45 46 47 48 49 50
000
ASUS44 KLZK 292305
RWRLZK

WEATHER ROUNDUP FOR ARKANSAS
NATIONAL WEATHER SERVICE LITTLE ROCK AR
600 PM CDT FRI MAY 29 2015

NOTE: "FAIR" INDICATES FEW OR NO CLOUDS BELOW 12,000 FEET WITH NO
SIGNIFICANT WEATHER AND/OR OBSTRUCTIONS TO VISIBILITY.

ARZ001-003-010-029-300000-
NORTHWEST ARKANSAS

CITY           SKY/WX    TMP DP  RH WIND       PRES   REMARKS
FAYETTEVILLE   LGT RAIN  67  66  97 N6        29.97R
FORT SMITH     LGT RAIN  69  66  90 E12       29.91F
HARRISON       TSTM      76  67  73 SW7       29.94S
BENTONVILLE    CLOUDY    66  63  88 N7        29.97S
ROGERS         HVY RAIN  66  65  96 NW8       29.98F FOG
SILOAM SPGS    CLOUDY    66  61  82 N7        29.98R
HIGHFILL       LGT RAIN  67  67 100 N7        29.97S
SPRINGDALE     RAIN      66  66 100 NW8       30.00R FOG
$$

ARZ004-005-016-300000-
NORTH CENTRAL ARKANSAS

CITY           SKY/WX    TMP DP  RH WIND       PRES   REMARKS
BATESVILLE     PTSUNNY   84  70  61 SE7       29.93S HX  88
FLIPPIN          N/A     79  66  65 E6        29.91S
MTN HOME       CLOUDY    75  69  81 CALM      29.92F
$$

ARZ040-041-300000-
WEST CENTRAL ARKANSAS

CITY           SKY/WX    TMP DP  RH WIND       PRES   REMARKS
MENA           CLOUDY    70  68  94 NE5       29.91S
MOUNT IDA      LGT RAIN  69  66  90 CALM      29.88F FOG
$$

ARZ009-017-025-026-028-300000-
NORTHEAST ARKANSAS

CITY           SKY/WX    TMP DP  RH WIND       PRES   REMARKS
CORNING        LGT RAIN  84  72  65 S24       29.95S HX  89
JONESBORO      LGT RAIN  75  72  90 S10       29.97S FOG
NEWPORT        MOSUNNY   86  70  58 S16       29.95S HX  90
WALNUT RIDGE   MOSUNNY   81  68  65 SE14G21   29.94S
BLYTHEVILLE    PTSUNNY   80  70  71 SE10      29.98F
$$

ARZ022-023-033-042-044-300000-
CENTRAL ARKANSAS

CITY           SKY/WX    TMP DP  RH WIND       PRES   REMARKS
LITTLE ROCK    CLOUDY    85  69  58 SE12G20   29.91S HX  89
N LITTLE ROCK  CLOUDY    84  72  65 SE13G18   29.91S HX  90
JACKSONVILLE   PTSUNNY   79  70  73 MISG      29.92R
SEARCY         PTSUNNY   79  69  71 SW7G18    29.95R
HOT SPRINGS    CLOUDY    82  69  64 S7        29.89F THUNDER HX  85
RUSSELLVILLE   CLOUDY    83  69  62 VRB5      29.89F HX  86
CLINTON        FAIR      77  73  88 CALM      29.93F
$$

ARZ036-300000-
EAST ARKANSAS

CITY           SKY/WX    TMP DP  RH WIND       PRES   REMARKS
WEST MEMPHIS   PTSUNNY   75  70  84 SE12      29.97F
$$

ARZ050-053-066-070-073-300000-
SOUTHWEST ARKANSAS

CITY           SKY/WX    TMP DP  RH WIND       PRES   REMARKS
ARKADELPHIA    FAIR      83  76  79 E3        29.88F HX  91
CAMDEN         PTSUNNY   84  70  61 NE8       29.89F HX  88
TEXARKANA      TSTM      69  68  96 S7        29.90R VSB 1
EL DORADO      CLOUDY    83  72  69 SE10      29.91F HX  88
DE QUEEN       CLOUDY    70  68  93 E6        29.86F
$$

ARZ056-057-069-300000-
SOUTHEAST ARKANSAS

CITY           SKY/WX    TMP DP  RH WIND       PRES   REMARKS
PINE BLUFF     MOSUNNY   86  70  58 S14       29.92F HX  90
STUTTGART      MOSUNNY   84  72  65 MISG      29.93F HX  89
MONTICELLO     SUNNY     86  71  60 SE13G20   29.92F HX  91

$$




USA.gov is the U.S. government's official web portal to all federal, state and local government web resources and services.